Location: Luz Observatory
(34.5000°N, 117.2833°W)
Time: 03:10:01
(UTC-08:00)

Okean 3 Rocket - Visible Passes

Search period start: 02 March 2015 00:00
Search period end: 12 March 2015 01:00
Orbit: 615 x 647 km, 82.5° (Epoch: 01 March)

Date Brightness Start Highest point End Pass type
(mag) Time Alt. Az. Time Alt. Az. Time Alt. Az.
02 Mar 5.1 18:41:35 10° NNE 18:44:06 17° ENE 18:44:06 17° ENE visible
02 Mar 5.4 20:18:40 10° NNW 20:21:35 29° WNW 20:21:35 29° WNW visible
03 Mar 4.1 19:01:44 10° NNE 19:05:49 35° ENE 19:06:35 33° E visible
03 Mar 6.3 20:40:56 10° NW 20:43:42 16° W 20:44:06 15° W visible
04 Mar 3.4 19:22:33 10° N 19:27:02 79° E 19:29:31 26° SSE visible
05 Mar 5.4 18:07:50 10° NE 18:09:40 13° ENE 18:11:46 10° E visible
05 Mar 4.6 19:43:51 10° NNW 19:48:08 46° W 19:52:25 10° SSW visible
06 Mar 4.6 18:27:23 10° NNE 18:31:08 26° ENE 18:34:57 10° SE visible
06 Mar 6.0 20:05:42 10° NW 20:09:09 21° W 20:12:29 10° SW visible
07 Mar 3.6 18:48:00 10° N 18:52:25 57° E 18:56:51 10° SSE visible
08 Mar 4.0 20:09:06 10° NNW 20:13:33 64° W 20:18:00 10° S visible
09 Mar 5.7 20:30:41 10° NNW 20:34:36 29° W 20:38:27 10° SSW visible
10 Mar 4.0 19:13:31 10° N 19:17:46 41° E 19:22:03 10° SSE visible
10 Mar 6.8 20:53:12 10° NW 20:55:34 14° W 20:57:43 10° WSW visible
11 Mar 3.6 19:34:26 10° N 19:38:57 89° W 19:43:29 10° S visible
